GFSSGP_500_rhum_246.txt.gz
RH
7 6 5 5 5 4 4 4 6 22 46 41 17 22 44 62 59 35 24 8 7 8 13 24 24 20 20 16 18 17 16 12 8 4 2 2 2 2 2 2 2 2 2 2 2 2 3 3 3
7 7 6 5 4 4 3 4 4 10 35 45 36 15 31 42 61 64 31 10 7 9 15 24 23 21 19 19 20 17 14 10 7 4 2 2 2 2 2 2 2 2 2 2 2 2 3 3 3
8 8 6 5 5 4 4 5 5 6 18 31 52 25 20 32 58 69 39 10 7 9 19 24 24 22 20 22 20 17 14 10 6 3 2 2 2 2 2 2 2 2 2 2 3 3 3 3 3
8 7 6 5 4 4 4 5 16 12 11 15 57 36 16 20 43 71 37 12 8 10 22 24 24 22 21 24 22 21 16 13 7 4 3 2 2 2 2 2 2 2 3 3 3 3 3 3 3
7 6 5 4 3 2 3 6 36 91 46 17 72 48 23 18 43 71 40 13 8 10 21 25 25 24 23 26 26 25 23 21 17 13 6 3 2 2 2 2 2 2 3 3 3 3 3 3 3
7 5 4 3 2 3 5 34 36 99 92 66 84 62 32 22 30 60 66 15 8 12 21 26 26 27 25 29 30 29 28 28 28 26 23 19 10 4 3 2 2 2 2 2 3 3 3 3 3
7 5 5 3 4 7 8 49 96 71 98 95 86 61 41 27 30 43 82 21 9 11 22 26 28 31 29 31 34 33 33 33 33 33 32 32 29 22 8 3 3 3 3 3 3 3 3 3 3
8 6 5 5 9 13 12 75 82 98 88 93 99 66 59 33 35 40 78 43 10 12 23 27 29 32 35 33 38 38 38 37 37 37 37 37 36 32 23 8 3 3 3 3 3 3 3 3 3
9 7 11 9 18 26 54 40 96 97 96 95 96 78 80 63 66 52 70 82 11 12 18 28 29 32 37 36 38 39 40 41 40 38 39 40 39 37 28 14 5 4 3 3 3 3 3 4 4
10 11 23 22 19 99 63 77 53 95 98 97 88 71 90 82 60 38 60 76 31 11 17 22 31 33 36 40 39 41 42 43 43 42 41 44 42 38 34 21 15 7 4 4 4 4 3 4 5
11 14 25 34 37 64 51 86 94 96 96 97 86 96 77 94 49 43 47 68 78 16 12 18 33 34 36 41 42 42 43 42 44 45 42 44 46 44 39 33 29 24 11 7 4 4 4 5 6
10 13 20 22 31 70 65 54 97 96 93 88 68 79 72 64 47 64 95 78 82 73 18 13 27 36 38 37 44 45 43 41 37 42 45 40 44 46 49 45 37 36 33 14 11 6 4 5 7
13 10 19 16 24 22 47 52 97 96 91 94 96 78 75 93 92 97 91 74 68 72 43 13 14 33 38 38 38 42 45 43 37 30 28 32 34 35 47 49 49 37 36 33 16 15 8 5 7
17 8 20 15 19 25 17 75 89 85 95 96 96 76 99 93 84 94 86 74 48 59 56 20 12 16 36 40 41 40 41 45 45 37 32 28 29 40 49 56 46 50 34 36 31 20 17 13 6
22 9 17 15 20 20 18 30 54 62 97 99 91 87 73 62 94 95 57 56 44 38 53 44 15 12 17 33 40 43 41 43 47 48 43 43 38 45 60 70 49 48 51 33 36 28 20 19 16
26 15 9 16 16 16 14 16 25 35 72 89 95 97 85 83 100 88 42 42 40 35 34 46 31 13 12 23 32 35 43 46 46 49 51 50 47 40 56 64 65 54 56 68 38 35 25 21 18
32 25 9 11 14 14 15 16 21 30 49 71 93 97 95 88 86 83 49 40 42 44 34 36 33 28 14 31 41 33 42 48 49 50 52 53 51 43 39 49 57 56 61 60 60 40 31 23 20
35 30 22 7 10 15 14 15 16 15 23 31 53 92 90 96 87 87 87 58 50 49 53 49 31 30 28 16 27 23 30 43 49 52 52 53 50 44 36 33 53 58 54 59 50 38 44 27 22
30 36 31 22 8 8 16 13 14 14 14 17 20 27 31 53 85 94 93 89 69 65 62 70 54 45 28 26 20 15 19 28 37 45 49 48 44 39 34 28 44 48 51 61 56 59 46 43 26
31 35 37 32 16 7 12 13 12 13 14 13 9 11 13 19 27 38 43 61 87 92 89 85 76 65 49 29 24 21 18 17 22 30 37 38 37 32 28 26 33 46 48 56 48 42 44 53 37
31 36 38 37 31 20 7 7 18 14 13 13 11 8 8 8 12 21 24 25 27 55 67 95 96 97 84 57 34 23 19 17 20 26 32 34 31 28 27 26 29 45 49 54 48 47 48 56 51
31 37 41 39 37 34 24 9 8 14 19 16 13 10 10 8 8 8 12 20 20 19 21 42 66 95 96 92 77 64 34 22 23 27 33 35 32 28 26 26 28 37 48 52 52 52 58 59 61
33 37 43 44 41 39 36 17 11 9 9 12 18 16 15 13 12 9 8 7 14 22 21 19 20 45 36 94 91 96 80 84 36 26 30 32 32 30 28 28 30 38 47 56 57 57 61 58 65
34 39 44 48 46 38 44 33 16 12 11 10 7 14 18 20 22 18 13 10 9 21 22 25 24 26 25 68 53 77 75 93 95 64 31 32 36 34 31 31 34 42 51 58 60 60 65 62 71
36 43 44 48 51 50 45 44 35 28 16 12 10 8 7 8 15 21 23 18 12 15 17 22 40 24 26 34 45 53 75 63 96 92 88 39 37 36 37 35 35 35 43 55 61 64 68 80 80
44 46 42 49 53 56 56 48 46 47 41 23 14 12 12 9 9 9 9 17 23 22 26 33 32 25 19 33 48 57 57 68 70 97 96 84 46 40 39 34 35 37 44 57 72 74 83 87 77
69 62 50 56 57 57 57 54 53 55 53 46 38 28 17 14 12 10 9 10 12 20 28 37 36 31 23 48 58 60 51 55 68 69 96 94 77 91 62 43 44 57 88 94 91 86 94 91 84
95 84 64 64 63 61 64 63 58 60 61 58 53 48 42 24 14 14 13 10 11 16 17 26 37 43 42 35 43 59 52 67 67 72 79 93 97 96 96 96 92 94 84 63 73 94 96 95 94
99 98 97 96 82 72 71 67 62 68 74 77 67 64 55 46 25 15 13 11 10 13 18 17 23 19 22 36 67 41 49 68 62 68 99 96 83 90 92 90 70 72 66 65 87 93 94 92 99
80 82 92 87 79 82 92 80 83 78 76 72 84 76 67 55 41 22 15 13 10 10 16 24 21 19 17 17 35 41 95 83 69 78 93 97 98 88 97 96 92 93 97 89 94 96 97 100 100

GFSSGP_500_rhum_249.txt.gz
RH
9 9 8 7 6 5 5 4 4 5 7 36 40 26 23 27 32 32 23 25 9 7 8 12 22 24 20 18 16 17 16 13 9 6 2 2 2 2 2 2 2 2 2 2 2 2 3 3 3
9 9 8 8 6 6 5 6 5 4 6 8 28 45 30 18 22 39 42 29 14 7 8 13 23 23 20 18 18 18 16 12 7 4 2 2 2 2 2 2 2 2 2 2 2 2 2 3 3
10 9 9 7 6 5 5 5 6 5 5 6 8 23 47 21 17 30 64 43 18 7 8 17 24 23 20 18 20 18 14 11 7 3 2 2 2 2 2 2 2 2 2 2 2 2 2 3 3
10 8 7 6 6 5 5 5 4 6 5 5 5 12 26 42 17 27 60 65 23 8 8 16 24 23 21 19 21 18 15 11 6 4 2 2 2 2 2 2 2 2 2 2 2 3 3 3 3
11 9 8 7 6 5 5 4 3 4 6 6 12 6 8 38 34 18 42 69 30 8 9 16 24 23 21 20 23 20 17 13 9 5 3 2 2 2 2 2 2 2 2 2 3 2 3 3 3
12 10 9 8 7 6 5 4 3 3 7 8 15 10 8 35 41 20 32 64 39 9 10 19 24 23 22 23 25 24 21 19 18 17 13 10 6 4 3 2 2 2 2 2 2 3 3 3 3
12 12 12 9 7 6 4 3 3 5 29 53 31 26 10 26 46 29 20 70 48 10 10 21 25 24 24 25 27 28 27 28 28 28 29 29 27 23 16 6 3 3 2 2 2 2 3 3 3
14 14 13 10 7 5 4 4 3 8 100 72 92 82 44 29 46 34 19 64 59 13 9 20 26 26 26 28 31 32 32 33 34 34 36 36 35 32 28 20 7 3 3 3 2 2 2 3 3
17 15 14 10 7 5 6 9 10 13 84 60 96 97 92 72 56 38 21 62 70 24 9 16 26 27 29 29 34 35 35 36 38 38 38 39 38 37 34 26 17 8 4 3 3 3 3 3 4
19 17 15 11 7 6 27 48 20 31 62 86 70 86 97 100 77 42 25 51 78 37 10 13 23 26 30 32 33 38 38 40 39 39 39 41 41 38 34 33 25 20 14 5 4 3 4 3 4
20 18 16 11 7 8 27 54 50 44 50 96 97 96 96 94 98 51 32 54 90 53 12 11 23 28 29 36 36 37 40 42 42 42 42 42 44 40 39 36 36 36 32 25 12 5 4 4 4
22 21 18 12 9 14 18 64 46 36 88 98 96 96 93 96 94 61 40 39 88 79 44 11 23 32 30 34 38 38 41 43 43 43 44 44 43 47 46 48 44 42 38 35 33 17 8 5 4
23 23 20 14 9 15 15 26 36 75 86 97 96 96 95 88 95 97 62 55 71 69 67 36 12 31 32 33 36 43 43 44 44 42 42 46 44 40 41 48 48 45 49 41 36 33 22 12 8
24 26 23 17 10 15 14 20 34 44 87 93 98 98 97 83 81 97 93 66 65 56 74 55 16 14 40 37 36 39 45 47 45 44 40 36 37 33 33 36 46 59 54 51 45 34 34 23 16
25 27 27 22 11 9 10 18 32 48 42 74 70 96 78 69 63 85 100 92 89 81 54 72 42 34 14 34 38 38 40 43 46 45 45 38 31 29 29 38 57 61 56 50 54 61 40 34 24
24 26 30 27 14 8 7 19 27 44 50 59 63 66 93 71 82 92 83 95 88 81 77 74 75 33 35 28 26 41 40 41 41 44 47 48 43 39 41 38 48 61 63 61 58 60 60 40 36
22 26 27 30 24 10 7 13 28 32 40 41 65 67 92 88 96 96 95 97 98 98 74 59 69 59 34 17 17 26 42 41 42 44 45 46 46 48 49 50 40 45 52 59 58 59 58 53 35
22 25 28 29 29 19 7 8 11 27 36 30 43 51 62 75 72 98 98 96 91 92 90 70 45 50 54 34 15 14 20 37 44 46 48 50 50 50 52 52 49 40 38 47 57 56 58 54 55
22 24 27 30 31 29 10 7 10 14 14 13 32 68 59 66 90 94 95 95 92 94 60 51 52 42 38 40 39 28 16 17 27 58 47 47 49 52 52 52 49 42 34 35 50 50 57 63 56
25 25 28 30 34 32 30 12 8 12 15 17 20 24 36 49 57 79 94 88 80 86 74 59 55 63 61 57 40 33 32 21 16 26 39 39 42 48 51 50 45 39 33 28 38 45 50 56 48
26 26 28 29 33 35 36 28 12 8 10 13 16 17 17 19 22 57 37 60 74 74 75 70 77 72 68 86 89 60 31 28 26 23 18 18 24 32 37 39 39 35 29 27 29 43 47 52 52
29 28 30 31 33 37 39 32 30 16 7 11 14 14 15 14 11 18 24 20 37 44 53 53 56 64 84 77 79 87 68 44 30 26 24 21 20 25 30 31 31 30 29 28 32 38 48 52 52
34 32 32 32 33 36 43 41 23 15 14 8 8 16 14 13 11 10 9 9 13 23 24 28 30 28 61 36 79 77 96 96 62 37 26 28 27 26 34 39 35 31 29 27 28 38 47 53 55
81 46 35 33 34 38 42 47 44 46 27 14 10 8 13 18 14 13 12 9 8 8 12 15 21 21 23 39 42 42 43 81 77 93 91 79 68 52 33 35 36 35 31 29 29 35 48 55 59
70 47 42 38 35 40 44 45 47 52 50 47 23 12 10 10 13 18 19 17 14 12 12 22 23 14 16 24 26 39 41 68 69 76 92 90 87 96 94 51 38 36 34 32 31 34 39 48 61
93 84 45 38 41 50 48 46 50 51 58 59 46 36 17 12 10 9 9 9 10 12 18 19 19 23 20 23 30 35 49 68 89 71 93 95 97 95 92 94 90 48 61 45 34 38 43 45 63
88 78 61 69 66 62 59 51 53 57 58 62 59 53 44 35 22 13 12 12 9 10 12 28 39 37 33 34 44 38 66 72 94 88 94 96 94 96 97 93 89 93 76 44 42 61 45 48 59
100 100 95 87 80 76 72 69 63 62 65 62 65 67 58 51 48 44 30 15 13 12 10 10 34 56 56 53 55 68 58 67 72 85 92 97 96 97 96 97 98 95 81 86 77 78 46 56 77
72 84 100 100 97 92 86 68 70 73 90 93 87 75 67 56 51 47 46 33 18 15 14 12 9 13 28 55 51 99 64 63 74 82 97 99 98 95 96 94 98 96 98 95 90 68 51 66 92
32 31 71 81 80 84 86 81 98 86 81 99 98 84 73 64 55 52 51 46 33 24 15 11 10 10 23 32 43 43 86 87 87 52 75 73 82 95 97 95 92 97 94 96 97 98 97 94 97

GFSSGP_500_rhum_255.txt.gz
RH
10 10 10 10 8 7 6 6 6 6 4 4 17 34 34 29 21 14 28 26 21 17 8 8 9 10 17 20 17 14 14 14 12 8 3 2 2 2 2 2 2 2 2 2 2 2 2 2 2
10 9 9 9 8 8 8 8 7 6 6 4 4 4 20 32 29 23 20 35 24 20 16 7 8 9 16 20 18 15 15 15 14 11 6 2 2 2 2 2 2 2 2 2 2 2 2 2 2
10 10 10 11 11 10 9 8 7 6 6 5 4 3 3 4 21 31 21 27 42 23 21 11 7 8 14 20 20 16 15 15 14 12 7 2 2 2 2 2 2 2 2 2 2 2 2 2 2
12 12 11 11 12 11 11 9 8 7 6 6 5 5 4 4 4 14 32 21 49 48 26 18 7 8 12 20 21 17 16 16 14 12 5 2 2 2 2 2 2 2 2 2 2 2 2 2 2
12 12 12 12 11 10 9 10 9 8 8 8 7 6 5 4 4 4 11 29 32 58 38 22 9 8 14 21 22 18 17 15 13 8 5 2 2 2 2 2 2 2 2 2 2 2 2 2 3
16 14 13 12 12 11 10 9 10 10 10 10 9 8 7 6 5 4 4 20 26 45 64 28 10 8 16 23 22 19 18 16 12 7 3 2 2 2 2 2 2 2 2 2 2 2 2 3 3
16 16 17 16 16 15 14 13 13 12 12 12 10 9 8 7 6 5 4 4 28 28 68 52 13 11 14 23 22 20 19 16 13 8 4 4 3 2 2 2 2 2 2 2 2 2 2 2 2
14 12 13 14 14 15 15 14 13 13 13 12 11 9 8 7 6 5 5 6 17 26 48 71 23 12 20 23 22 19 21 17 13 10 9 10 11 13 16 16 12 8 5 4 3 3 2 2 2
12 8 5 6 11 13 15 16 15 14 12 11 10 8 6 5 6 22 15 11 12 31 38 73 32 12 22 22 21 19 22 18 13 12 17 21 24 26 27 26 24 20 16 12 8 6 4 3 3
9 6 4 6 12 13 15 16 17 15 12 9 6 6 14 9 7 43 52 50 22 39 38 77 26 14 22 22 17 19 22 20 17 21 26 28 29 31 32 31 29 26 23 20 19 18 14 9 5
6 5 4 5 10 7 12 18 17 14 9 4 9 25 29 19 29 66 82 76 49 50 48 85 25 16 23 23 18 22 24 24 25 28 32 33 33 35 36 35 35 35 33 32 32 31 32 26 19
6 5 5 4 5 5 8 18 17 13 6 6 21 30 44 14 64 61 87 97 71 61 49 91 32 17 26 24 23 27 28 30 32 34 35 37 37 39 39 38 38 38 39 39 39 39 40 37 39
10 8 6 6 5 4 6 19 17 12 5 14 38 36 32 24 36 97 96 97 92 63 52 99 48 18 30 25 24 32 34 35 36 38 39 39 39 41 42 41 42 43 46 45 50 49 46 45 49
11 11 11 10 8 5 6 20 17 12 14 27 25 20 26 25 38 84 86 97 95 65 42 99 69 18 30 28 26 33 37 36 36 40 40 39 40 41 43 46 46 48 49 47 55 53 49 52 54
11 11 11 11 9 6 6 21 18 14 22 26 27 43 47 51 84 95 94 92 92 94 53 69 89 20 26 33 29 30 33 37 38 43 44 43 43 44 44 44 45 44 43 46 54 59 56 52 51
10 9 10 10 10 7 7 22 19 13 21 22 26 47 75 74 86 93 96 92 94 97 80 61 98 28 17 36 34 32 33 35 36 40 46 45 46 45 40 40 44 42 36 32 42 51 59 58 54
12 11 11 11 10 8 7 18 22 15 15 13 26 39 57 77 76 65 97 96 97 95 95 55 99 54 15 20 37 38 39 41 44 45 46 48 48 50 47 46 40 31 29 29 32 37 49 54 53
18 17 16 13 12 8 9 15 23 22 13 10 16 42 56 63 65 60 75 96 96 94 96 86 91 86 29 14 20 36 40 40 44 48 43 48 52 60 56 53 52 50 49 46 44 46 47 46 44
25 22 22 18 15 10 10 13 21 26 24 12 11 40 56 31 44 47 42 43 74 94 97 68 75 98 68 29 14 15 32 44 47 45 43 45 54 65 52 51 50 50 51 51 52 53 50 54 50
39 32 28 28 20 14 12 14 20 24 29 21 11 19 27 34 28 34 36 36 60 73 85 83 78 82 100 92 48 22 17 19 24 51 43 70 67 56 50 51 53 61 68 69 76 78 83 64 52
49 46 44 45 32 22 18 15 20 25 28 30 18 10 16 24 29 36 30 37 59 57 84 96 95 80 68 78 93 82 41 21 25 22 28 64 39 53 51 46 34 36 45 51 51 53 43 63 43
62 69 65 58 44 31 26 27 23 26 29 32 30 17 10 15 20 18 24 25 62 69 81 96 96 90 96 84 87 85 85 65 54 56 69 74 65 76 69 64 64 40 31 28 46 56 76 65 35
69 87 77 69 63 56 47 39 30 27 31 33 36 31 21 9 12 16 17 26 52 66 64 76 84 74 76 88 97 96 96 96 96 93 91 83 84 80 62 41 42 33 33 30 35 31 34 32 32
86 76 80 78 78 56 57 53 43 36 34 35 38 39 25 14 8 13 15 19 35 53 63 62 73 83 85 93 94 95 98 96 88 87 87 85 74 68 69 67 50 47 46 50 44 36 42 49 52
63 72 70 72 69 52 70 64 52 48 50 48 38 41 40 34 11 9 14 14 12 16 31 74 92 89 100 100 97 93 79 86 98 91 78 80 83 88 96 93 86 82 60 45 40 37 40 43 51
51 58 68 70 53 47 60 49 57 66 70 61 38 48 47 42 34 10 12 17 15 12 11 16 44 81 97 96 97 97 94 79 85 100 96 88 92 85 77 77 81 96 95 96 97 95 89 77 96
30 28 68 66 50 40 40 44 62 66 68 70 47 49 67 52 48 34 12 12 20 21 15 11 13 20 54 82 86 88 88 90 77 76 96 97 97 94 80 73 65 72 73 91 91 97 96 100 97
8 21 45 47 39 29 21 39 68 72 70 64 77 62 82 88 60 53 42 20 12 15 20 20 15 12 24 16 22 46 64 67 69 69 58 56 83 100 100 94 75 69 75 90 95 96 96 98 98
12 9 9 19 31 25 28 39 66 71 68 61 61 84 90 86 89 62 59 51 29 14 12 15 21 22 19 20 22 22 22 45 46 72 62 52 68 74 89 100 97 94 92 99 97 91 93 96 96
26 19 16 13 16 27 51 70 88 79 83 80 80 81 81 87 84 88 74 63 57 48 32 15 13 13 16 25 28 39 37 38 34 37 68 75 76 71 66 76 88 94 96 92 88 100 98 97 98

GFSSGP_500_rhum_261.txt.gz
RH
6 6 7 7 7 6 6 7 6 6 5 10 26 33 33 34 33 21 22 27 20 9 8 8 10 12 12 13 16 17 14 12 6 3 4 3 2 1 2 2 2 2 2 2 2 2 2 2 2
8 9 9 9 8 8 9 8 7 6 5 4 6 10 18 24 31 33 23 19 27 23 12 8 8 9 11 12 16 18 16 14 12 8 6 5 2 2 2 2 2 2 2 2 2 2 2 2 2
9 9 10 9 8 8 8 8 7 6 7 6 4 4 4 4 7 21 32 28 19 25 23 14 8 8 9 11 14 18 18 14 14 13 10 7 3 2 2 2 2 2 2 2 2 2 2 2 2
9 8 8 8 9 8 8 8 8 7 7 6 6 5 5 5 5 4 4 23 32 19 21 24 17 9 8 9 11 16 19 16 15 15 12 9 4 2 2 2 2 2 2 2 2 2 2 2 2
14 13 12 12 12 11 9 8 9 8 7 7 7 6 5 5 5 5 5 4 5 27 26 20 24 18 9 8 9 13 18 19 16 15 13 11 5 2 2 2 2 2 2 2 2 3 3 3 3
13 12 12 14 15 14 12 11 9 9 8 6 5 5 6 7 7 7 6 5 5 4 10 23 22 22 18 8 8 12 18 20 17 16 14 11 5 2 2 2 2 2 2 2 2 2 2 2 2
13 11 12 14 16 16 16 16 15 13 11 10 9 8 9 9 9 8 9 9 8 6 5 5 17 23 22 16 8 10 17 21 19 16 15 13 7 3 2 2 2 2 2 2 2 2 2 2 2
13 12 10 11 14 15 14 14 14 14 14 14 13 13 12 12 12 12 11 11 10 9 7 5 5 17 23 23 12 9 18 21 20 17 15 12 8 3 2 2 2 2 2 2 2 3 3 2 2
11 11 11 10 9 13 12 8 6 8 10 12 13 14 14 14 13 14 14 13 12 11 10 8 5 9 22 26 20 9 17 22 19 17 14 11 7 3 3 3 2 2 4 7 8 8 7 5 5
9 9 11 10 10 9 10 8 5 5 8 10 9 8 8 13 16 17 16 16 14 13 12 11 7 7 20 29 25 12 14 21 18 15 13 8 5 4 3 3 8 14 18 18 17 13 13 14 13
9 10 11 10 10 9 8 7 5 4 5 6 6 5 6 11 17 17 16 12 10 12 13 11 9 8 19 34 29 16 14 20 17 12 9 6 4 4 6 14 21 24 23 22 21 24 27 29 29
7 9 9 10 10 10 9 6 5 5 4 4 4 5 5 9 16 14 10 13 21 22 21 26 10 8 25 43 33 20 14 18 16 12 10 6 7 12 18 23 26 27 28 29 31 34 39 41 41
9 8 8 9 10 10 10 10 10 9 7 7 6 6 6 8 16 12 17 32 25 21 38 71 22 16 43 58 38 21 16 17 18 13 12 10 14 19 22 27 29 32 34 36 38 42 49 49 49
9 9 9 9 10 9 9 10 10 10 10 10 9 8 7 10 17 18 30 33 25 28 21 95 91 71 62 78 38 23 18 17 19 14 13 15 22 23 24 29 31 34 37 38 42 45 50 51 51
19 11 9 10 10 10 10 10 10 11 11 11 10 9 7 10 18 22 41 37 36 22 24 49 97 89 73 94 44 27 21 19 20 15 16 19 27 30 28 30 31 33 35 38 43 49 49 51 53
32 27 20 14 12 10 10 10 10 11 11 10 9 8 7 9 20 16 27 37 41 29 21 72 96 94 65 92 48 31 25 23 23 18 21 26 30 35 37 39 39 39 38 40 45 48 46 44 51
39 36 33 25 21 18 18 15 12 12 12 12 12 9 8 9 19 17 25 28 42 52 38 58 95 96 70 80 67 30 32 28 28 25 27 33 36 37 39 40 40 40 42 45 45 47 40 34 31
41 32 31 38 31 25 24 21 17 16 16 16 14 11 9 14 22 22 29 32 31 38 71 79 88 94 90 78 87 29 36 33 37 34 33 36 42 41 41 41 41 41 44 41 49 50 43 35 37
37 34 33 43 40 34 29 25 22 21 22 24 26 15 12 15 24 26 26 35 41 50 48 78 94 87 86 92 87 40 34 32 29 36 40 41 43 42 44 45 52 58 71 66 64 63 66 63 63
46 43 43 54 51 42 33 27 29 27 27 28 29 24 16 15 22 29 23 58 56 43 42 45 91 73 82 92 84 65 28 36 34 35 40 44 45 45 44 50 57 62 68 82 79 79 80 83 72
61 60 65 70 60 48 39 31 38 38 33 29 29 23 18 17 22 27 27 43 46 36 31 32 77 91 80 90 90 79 26 34 37 36 34 41 44 46 47 48 49 56 66 67 79 77 85 84 57
64 81 81 79 72 61 56 31 36 43 41 42 42 30 22 21 23 27 32 24 43 48 31 22 60 94 76 94 95 97 38 25 37 39 39 40 42 45 44 43 45 48 49 66 68 65 75 80 62
63 76 78 70 74 68 56 53 28 52 55 44 40 30 27 27 26 28 33 32 24 18 30 38 58 78 97 96 97 96 86 23 23 33 40 42 43 42 42 43 43 46 50 66 68 64 69 56 55
53 55 71 81 85 61 56 63 39 57 55 57 47 44 41 38 33 30 32 39 23 14 23 31 96 99 97 96 95 96 94 88 49 39 24 29 35 38 41 44 46 48 50 56 54 59 64 78 76
10 12 38 65 62 48 55 66 64 63 55 58 59 58 55 47 43 36 37 40 32 15 58 39 91 82 98 97 96 97 95 93 68 41 22 20 20 21 24 26 28 30 31 34 37 38 51 59 85
17 19 30 48 41 39 52 32 27 36 45 51 57 60 69 67 59 49 47 44 47 19 36 87 76 100 94 97 97 98 96 94 91 85 71 42 30 28 24 23 22 21 24 25 35 36 62 78 74
23 16 28 26 20 17 17 14 16 22 28 42 47 53 67 72 57 57 56 47 48 45 15 34 88 59 65 97 91 96 89 99 96 96 97 97 96 95 82 72 64 77 60 60 69 77 76 77 81
21 23 26 23 21 18 16 19 26 29 24 16 29 50 72 77 75 63 61 54 52 35 20 20 59 95 98 98 90 98 97 98 97 94 93 95 98 97 97 94 98 97 95 94 92 88 90 92 100
24 23 25 26 26 24 24 24 27 23 21 27 33 47 67 75 61 62 55 60 72 89 25 14 19 62 80 89 95 81 100 84 100 97 98 97 97 97 97 96 96 97 91 96 95 86 94 99 90
61 44 47 39 29 26 24 23 24 23 21 27 38 42 64 77 60 64 68 65 79 92 94 24 16 15 25 71 96 97 83 97 98 97 97 98 97 97 98 97 96 100 97 98 97 98 99 100 99

GFSSGP_500_rhum_264.txt.gz
RH
4 4 5 6 5 5 5 5 4 4 9 20 30 35 35 32 26 22 26 25 16 8 8 8 10 10 10 10 13 15 14 11 7 2 2 2 1 1 1 1 2 2 2 2 2 2 2 2 2
4 6 6 6 6 7 8 8 6 4 5 5 9 19 27 33 34 34 23 22 27 18 9 8 8 9 10 10 11 15 15 13 12 4 3 2 2 2 1 2 2 2 2 2 2 2 2 2 2
7 8 8 8 9 10 9 8 6 5 4 4 4 4 5 12 16 31 34 26 19 24 22 11 8 8 8 10 10 12 15 14 14 12 8 4 2 2 2 2 2 2 2 2 2 2 2 2 2
9 10 9 9 10 10 8 8 7 7 7 6 6 4 4 4 4 4 8 28 32 18 20 24 18 9 8 8 9 11 13 15 14 14 13 10 4 2 2 2 2 2 2 2 2 2 2 2 2
9 9 9 9 11 10 8 7 8 7 7 8 7 6 6 6 6 5 5 4 6 26 27 18 22 23 13 8 8 9 11 15 16 15 15 13 8 2 2 2 2 2 2 2 2 2 2 2 3
12 12 12 12 12 10 10 8 9 8 8 8 7 6 6 6 5 5 5 5 5 5 7 22 24 20 24 18 8 8 10 12 15 16 15 14 10 4 2 2 2 2 2 2 2 3 2 2 2
15 15 13 12 13 13 12 12 11 10 9 8 7 6 6 5 5 5 5 5 5 5 5 5 7 22 22 23 20 9 9 12 15 17 16 15 11 5 2 2 2 2 2 2 2 2 2 2 2
15 16 14 12 12 13 15 15 14 14 12 10 8 8 8 9 9 9 9 8 8 7 6 6 5 5 14 25 24 20 9 10 15 19 17 16 11 5 2 2 2 2 2 2 2 2 2 3 2
10 10 12 13 12 10 11 14 13 12 12 13 13 12 11 12 12 12 12 13 12 12 10 10 8 6 5 9 25 24 15 8 13 20 18 15 11 5 3 2 2 2 2 2 2 4 5 3 4
9 8 9 11 11 11 10 10 12 11 8 6 6 9 11 13 13 14 14 14 13 12 13 12 11 10 8 6 11 27 21 10 10 18 19 14 8 4 3 2 2 2 2 4 6 10 9 7 8
10 9 9 8 8 9 10 10 9 10 9 6 4 6 9 9 6 6 8 14 15 15 14 14 14 13 11 8 8 25 30 15 12 15 20 15 8 4 3 3 3 4 6 10 12 12 12 16 20
8 9 9 9 8 8 9 9 9 8 7 6 5 4 4 4 5 5 5 10 16 15 15 14 13 11 12 11 9 13 33 21 14 17 20 15 10 5 4 3 4 9 13 15 19 24 29 33 37
8 10 9 9 8 8 8 9 9 10 9 7 5 5 5 5 6 6 6 8 14 12 12 21 25 21 12 10 14 17 29 26 15 17 19 17 10 5 5 6 11 17 22 26 30 34 39 44 47
11 10 9 9 9 9 8 8 6 11 9 10 9 9 8 8 7 7 7 8 15 27 30 28 34 29 27 18 16 44 48 28 18 17 17 16 11 7 7 12 20 26 31 33 35 39 46 50 48
30 26 16 11 10 10 9 9 9 9 9 9 9 9 9 9 8 8 8 8 16 34 28 25 21 19 44 74 27 72 64 29 20 17 16 13 12 10 12 17 24 28 33 37 38 42 46 53 52
30 28 30 27 22 17 13 10 11 11 10 10 10 10 9 9 9 8 8 8 15 16 28 22 34 40 42 90 95 88 84 31 24 18 17 14 13 14 16 19 26 29 32 36 37 40 46 49 51
30 31 33 33 31 26 22 17 15 14 13 12 11 10 11 12 14 14 9 7 15 19 22 16 40 32 31 90 96 72 95 36 32 21 20 16 17 21 22 22 26 30 32 34 36 39 45 50 46
40 34 30 32 32 31 28 26 25 21 19 18 15 14 14 15 17 20 13 8 17 19 16 26 37 52 49 60 95 83 96 46 33 26 23 21 22 28 30 31 32 35 37 39 39 42 44 46 43
35 31 31 37 44 38 30 26 29 32 25 23 20 17 18 19 22 24 15 10 18 20 20 37 45 67 62 78 60 93 69 64 34 35 30 28 26 30 35 37 38 40 40 40 40 40 43 44 47
34 34 34 43 53 38 36 26 30 36 31 29 26 23 22 23 25 27 24 13 21 20 26 46 40 48 47 75 79 94 76 79 36 35 33 33 33 38 43 44 42 41 41 41 43 47 54 59 65
39 35 46 53 54 43 33 25 34 38 38 33 30 28 26 27 28 27 24 16 19 23 24 44 33 42 49 69 94 97 64 90 43 35 35 42 44 42 44 44 44 46 47 52 62 61 63 72 76
32 47 67 72 67 52 49 29 31 46 48 44 40 37 34 30 29 29 22 17 18 25 22 35 30 28 43 62 69 83 70 77 85 38 36 32 34 40 42 45 46 47 51 56 59 60 63 65 64
12 40 59 64 69 61 54 54 28 42 60 58 49 43 39 37 41 39 25 20 22 25 24 21 44 29 35 75 71 96 84 69 98 45 36 31 36 45 44 45 48 51 52 51 51 51 56 60 64
10 9 23 52 69 53 61 61 42 53 66 69 61 49 42 40 42 37 28 26 27 29 26 17 24 28 57 100 91 80 96 96 91 77 36 38 37 40 41 46 48 49 48 46 47 46 47 51 59
15 24 38 52 48 35 40 51 58 76 71 67 66 60 56 48 47 41 36 35 31 32 30 18 21 28 73 96 96 94 97 98 95 83 34 35 38 33 38 40 44 47 47 46 45 47 51 51 51
19 35 46 39 18 11 12 16 40 72 76 78 72 67 60 58 60 55 49 43 37 36 34 27 20 97 100 96 96 96 96 96 97 94 61 29 33 40 42 44 44 44 44 44 47 48 50 49 48
23 18 31 23 15 11 10 11 15 28 44 48 44 46 52 58 64 64 62 56 50 40 38 30 23 99 99 97 97 96 96 97 97 98 94 56 52 28 30 31 32 34 35 35 35 35 36 33 26
26 40 40 31 27 22 17 22 20 23 22 24 33 37 47 56 67 69 68 59 53 46 46 33 36 69 97 98 99 97 96 97 96 94 95 87 50 62 42 50 31 22 21 22 21 21 22 23 30
34 29 29 36 45 42 37 26 23 23 26 26 32 30 37 44 67 75 75 67 60 56 46 44 29 98 81 98 98 98 97 97 97 97 97 96 97 95 93 85 72 75 73 78 76 62 56 49 88
63 70 89 74 49 40 40 34 30 26 30 30 30 30 42 50 66 74 77 68 64 60 55 39 27 22 84 98 98 98 98 96 97 96 97 96 96 97 97 95 98 97 97 98 94 97 95 94 97

GFSSGP_500_rhum_267.txt.gz
RH
4 4 4 4 4 4 4 4 5 10 24 33 40 40 34 28 23 23 22 17 11 8 8 9 12 11 11 10 10 13 14 11 7 3 2 2 2 1 1 2 2 2 2 2 2 2 2 2 2
3 4 4 5 5 5 5 5 5 5 17 9 14 27 36 34 33 24 24 24 23 12 9 8 9 11 11 10 9 10 14 13 11 4 2 2 2 2 2 2 2 2 2 2 2 2 2 2 2
3 3 4 6 6 6 6 7 6 5 5 5 5 5 13 26 32 35 33 24 22 25 15 9 8 8 10 11 10 9 12 14 12 10 5 3 2 2 2 2 2 2 2 2 2 2 2 2 2
6 6 6 7 8 9 9 9 8 7 7 7 6 6 4 5 8 16 24 34 31 20 24 21 11 9 8 9 11 10 10 13 13 12 10 9 5 2 2 2 2 2 2 2 2 2 2 2 2
9 8 8 8 10 10 10 8 9 8 8 8 8 8 6 6 4 4 5 12 26 32 24 19 24 20 10 9 8 10 10 11 14 14 13 12 11 5 2 2 2 2 2 2 2 2 2 2 2
11 10 10 10 11 10 9 8 9 8 8 8 9 9 8 6 5 5 5 4 4 9 24 29 22 20 23 19 11 8 10 11 12 14 14 14 14 10 4 2 2 2 2 2 2 2 2 2 2
11 11 10 12 14 13 12 10 10 10 10 9 10 9 8 8 6 6 6 6 5 5 5 8 18 25 22 21 22 19 9 9 11 13 15 14 14 13 9 2 2 2 2 2 2 2 2 2 2
11 11 13 14 14 13 12 12 12 12 12 11 10 10 8 7 6 6 6 5 5 5 5 5 4 4 11 24 22 23 22 13 9 13 15 16 15 14 11 5 2 2 2 2 2 2 2 2 2
11 10 11 14 14 12 12 12 15 15 15 14 13 11 9 9 8 7 7 7 7 6 7 7 7 6 5 4 9 21 23 22 13 10 14 17 17 15 11 6 2 2 2 2 2 2 2 3 4
9 9 10 11 13 12 12 11 10 13 14 14 14 14 13 13 12 11 11 10 11 10 11 10 9 9 8 7 5 5 12 24 21 11 11 15 17 16 13 7 3 3 3 2 2 2 4 6 7
11 10 9 9 10 10 11 11 10 10 10 12 10 8 8 9 11 12 12 12 13 14 14 13 12 10 11 11 9 7 5 9 24 21 11 15 18 17 15 9 3 3 3 2 2 5 8 8 7
10 11 10 11 10 8 8 8 9 10 10 9 9 10 7 5 6 9 10 8 6 6 7 11 13 14 14 13 13 11 9 6 10 24 19 14 18 19 17 10 4 3 3 3 5 10 10 10 16
9 10 9 10 9 9 9 9 8 9 10 9 9 8 7 6 5 4 6 6 5 5 6 6 12 14 15 15 14 13 13 11 8 16 22 16 17 18 15 13 4 3 3 6 11 13 16 26 36
11 8 9 9 9 9 8 9 7 10 10 8 9 9 8 7 5 5 5 5 6 6 6 6 12 13 13 13 13 13 12 11 11 16 23 20 16 17 13 11 5 3 4 11 16 23 31 36 43
24 27 18 10 10 9 9 9 8 10 9 8 8 8 9 9 8 8 8 8 8 7 7 8 17 24 30 32 30 26 17 12 12 27 27 20 17 16 12 8 5 4 9 18 25 31 36 41 46
23 21 25 30 28 19 13 10 10 10 10 9 9 9 8 8 8 9 9 9 9 8 8 10 21 30 30 27 25 23 22 19 14 35 34 18 14 15 12 7 6 8 17 25 30 34 38 45 51
25 24 36 37 32 32 28 22 19 14 12 11 10 10 10 10 10 10 10 10 11 11 9 10 19 22 21 17 32 32 34 36 36 82 34 18 15 12 12 9 10 15 23 30 35 37 39 45 49
43 42 41 34 32 32 29 25 28 24 20 16 12 12 12 12 11 11 10 11 14 17 16 10 16 22 20 19 36 37 54 96 78 88 41 21 17 16 14 12 12 18 24 29 34 37 38 40 46
52 41 37 40 42 28 34 29 33 30 27 26 26 22 19 18 17 17 17 17 17 20 17 12 16 18 20 23 31 56 62 76 97 94 70 26 23 22 20 17 16 18 25 29 33 34 36 37 40
48 39 38 40 43 43 38 29 26 29 32 26 30 32 29 23 21 20 20 19 19 24 21 13 18 19 30 33 52 56 58 74 98 99 90 34 24 25 32 29 24 23 26 32 35 37 40 41 42
37 37 42 49 55 42 38 25 27 34 32 34 34 33 30 28 28 25 22 21 20 22 23 19 19 18 26 36 48 51 46 89 87 90 95 46 34 30 36 38 35 33 35 38 40 40 37 35 39
19 30 41 46 54 41 50 23 32 25 32 42 44 41 34 32 30 27 24 23 23 23 23 20 19 19 20 35 36 55 61 57 86 80 98 69 39 38 37 43 42 40 39 40 40 40 41 44 54
8 16 26 61 56 60 38 34 22 38 30 47 44 35 40 39 37 33 29 29 27 26 25 19 19 19 24 30 36 44 52 96 93 95 97 93 52 42 42 43 50 49 46 47 48 50 52 59 56
8 6 10 22 42 29 30 42 24 53 39 43 44 54 49 44 41 40 38 36 31 31 28 20 20 21 20 28 30 38 35 83 100 94 95 94 47 44 50 50 48 50 54 53 55 57 58 60 61
13 10 9 11 14 7 27 33 19 36 39 47 56 61 59 59 55 46 41 38 36 40 31 25 24 23 19 20 30 38 83 97 98 100 98 100 63 41 41 42 47 52 54 54 56 58 60 58 56
12 14 14 19 19 17 21 10 13 16 52 54 60 67 66 67 61 53 46 45 44 38 31 29 28 26 22 19 36 88 98 98 97 96 99 96 95 48 43 42 49 55 55 54 57 58 57 55 51
12 18 19 54 61 55 18 19 18 28 28 19 37 66 77 74 68 60 62 58 48 45 42 37 32 29 24 21 84 92 98 97 98 96 96 92 97 92 47 43 43 46 50 49 52 53 52 51 48
30 27 55 52 46 57 36 32 20 14 12 11 16 55 71 68 70 68 62 63 63 55 47 38 34 33 25 59 95 99 98 97 97 97 96 98 96 96 91 51 45 47 43 42 43 44 47 46 45
38 35 53 72 80 65 58 45 17 14 18 26 26 34 31 32 40 52 62 65 70 65 55 44 38 39 29 78 97 99 97 98 97 97 97 96 95 96 96 96 56 48 52 47 58 47 44 40 43
83 100 100 99 77 79 100 77 30 21 28 32 38 27 26 26 28 51 68 75 74 62 53 48 41 42 37 31 94 97 98 100 99 97 97 97 97 96 94 94 88 51 41 52 67 34 41 50 46